This is the latest recevied weather packets stored in our database for station/object K7PMV-13. If no packets are shown the sender has not sent any weather packets the latest 1 day(s).
| Time | Temp. | Humidity | Pressure | Rain* | Wind** | Luminosity | Snow |
|---|---|---|---|---|---|---|---|
| 1777990086 | 18.33° C | 66% | 1008 hPa | 0 mm | 2.24 m/s, 360° | 97 W/m² | - |
| 1777989772 | 18.33° C | 67% | 1008.1 hPa | 0 mm | 1.34 m/s, 360° | 86 W/m² | - |
| 1777989450 | 18.33° C | 69% | 1008.1 hPa | 0 mm | 0.89 m/s, 360° | 88 W/m² | - |
| 1777989135 | 18.33° C | 70% | 1008 hPa | 0 mm | 0.89 m/s, 360° | 90 W/m² | - |
| 1777988820 | 18.33° C | 71% | 1007.9 hPa | 0 mm | 1.34 m/s, 360° | 76 W/m² | - |
| 1777988506 | 18.33° C | 71% | 1007.9 hPa | 0 mm | 0.45 m/s, 360° | 56 W/m² | - |
| 1777988191 | 18.33° C | 70% | 1007.9 hPa | 0 mm | 0.89 m/s, 360° | 42 W/m² | - |
| 1777987859 | 18.33° C | 70% | 1007.8 hPa | 0 mm | 0.89 m/s, 360° | 33 W/m² | - |
| 1777987541 | 17.78° C | 69% | 1007.7 hPa | 0 mm | 0.45 m/s, 360° | 26 W/m² | - |
| 1777987226 | 17.78° C | 69% | 1007.9 hPa | 0 mm | 0.89 m/s, 360° | 12 W/m² | - |
| 1777986911 | 17.78° C | 69% | 1007.9 hPa | 0 mm | 0.89 m/s, 360° | 7 W/m² | - |
| 1777986583 | 17.78° C | 69% | 1007.9 hPa | 0 mm | 0.89 m/s, 360° | 7 W/m² | - |
| 1777986253 | 17.78° C | 68% | 1007.7 hPa | 0 mm | 1.34 m/s, 360° | 7 W/m² | - |
| 1777985936 | 17.78° C | 68% | 1007.6 hPa | 0 mm | 1.34 m/s, 360° | 5 W/m² | - |
| 1777985620 | 17.78° C | 68% | 1007.6 hPa | 0 mm | 0.89 m/s, 360° | 0 W/m² | - |
| 1777985300 | 17.78° C | 68% | 1007.5 hPa | 0 mm | 0.89 m/s, 360° | 0 W/m² | - |
| 1777984982 | 17.78° C | 67% | 1007.4 hPa | 0 mm | 0.89 m/s, 360° | 0 W/m² | - |
| 1777984654 | 17.78° C | 67% | 1007.3 hPa | 0 mm | 1.34 m/s, 360° | 0 W/m² | - |
| 1777984340 | 17.78° C | 67% | 1007.3 hPa | 0 mm | 1.34 m/s, 360° | 0 W/m² | - |
| 1777984020 | 18.33° C | 67% | 1007.2 hPa | 0 mm | 2.24 m/s, 360° | 0 W/m² | - |
| 1777983705 | 18.33° C | 67% | 1007.2 hPa | 0 mm | 0.89 m/s, 360° | 0 W/m² | - |
| 1777983389 | 18.33° C | 67% | 1007.2 hPa | 0 mm | 0.45 m/s, 360° | 0 W/m² | - |
| 1777983071 | 18.33° C | 67% | 1007.1 hPa | 0 mm | 1.34 m/s, 360° | 0 W/m² | - |
| 1777982754 | 17.78° C | 67% | 1007 hPa | 0 mm | 0.45 m/s, 360° | 0 W/m² | - |
| 1777982439 | 17.78° C | 67% | 1007 hPa | 0 mm | 0.89 m/s, 360° | 0 W/m² | - |
* Rain latest hour (hover to see other rain measurements)
** Current wind speed in m/s (hover to see current wind gust speed)